Vorticity
8 8 7 7 6 6 6 5 5 6 6 6 7 7 8 9 9 10 10 11 11 10 9 9 9 9 9 10 10 10 12 16 27 36 41 36 20 8 -0 -4 -4 -4 -4 -3 -2 -0 2 3 7 10 12 10 9 9 9 9 7 7 8 9 5 2 0 2 5 8 10 13 14
8 8 7 7 6 6 5 5 5 5 6 6 7 8 8 9 9 10 10 11 11 10 9 8 9 9 10 10 10 10 12 15 22 31 39 40 28 15 4 -2 -3 -3 -2 -2 -1 1 2 2 4 6 8 8 8 8 8 8 8 7 6 6 4 3 2 2 4 5 6 8 10
7 7 7 6 6 6 5 5 5 6 6 6 7 8 8 9 10 10 10 11 10 10 10 9 9 10 10 9 10 10 12 14 19 27 35 40 33 22 11 3 0 -0 0 0 2 2 2 2 3 4 6 6 6 6 6 6 8 8 7 5 5 4 4 4 6 5 4 3 4
7 7 7 6 6 6 6 5 5 6 6 6 7 8 9 9 10 10 10 10 10 11 10 9 9 9 10 10 10 10 12 14 18 24 30 37 35 27 18 9 5 3 3 4 4 4 4 4 5 6 6 6 6 5 5 5 7 8 8 6 6 5 5 6 7 7 5 3 2
8 7 7 6 6 6 5 5 5 6 6 6 7 8 8 9 10 10 10 11 12 11 10 9 9 9 10 10 10 10 11 12 17 22 28 34 35 30 23 15 10 7 6 7 7 6 5 5 6 7 8 8 7 6 4 4 5 6 7 7 7 6 6 6 7 7 6 4 2
7 7 7 6 6 5 5 5 5 6 6 6 7 8 8 9 10 10 11 12 11 10 10 9 9 9 9 10 11 10 10 11 15 20 26 32 34 31 26 19 14 10 9 9 9 8 6 6 6 8 9 9 8 7 5 4 5 5 6 6 6 6 6 6 6 7 7 6 4
7 7 6 6 6 5 5 5 5 6 6 6 7 8 8 9 10 11 11 11 10 10 10 10 9 9 9 10 11 11 11 11 13 18 24 30 34 32 27 20 15 12 10 10 9 8 8 7 7 8 8 9 8 7 7 6 5 5 5 5 5 5 5 6 6 6 7 7 6
7 7 6 6 6 5 5 5 5 6 6 7 7 8 8 9 10 10 11 11 11 10 10 9 9 9 10 10 11 11 11 10 12 15 21 27 32 33 30 22 16 12 11 10 10 9 8 8 8 7 7 8 8 8 7 6 6 5 5 5 5 5 5 5 5 6 6 6 7
7 7 6 6 6 5 5 5 6 6 6 7 7 8 8 9 10 10 10 11 11 10 10 9 9 9 10 10 11 11 11 11 11 13 17 23 29 32 31 26 18 13 11 11 11 10 9 8 7 6 6 6 6 7 7 6 6 6 5 5 5 6 6 6 6 6 6 7 7
7 7 6 6 6 6 5 5 6 6 6 7 7 8 8 9 10 10 11 11 10 10 10 10 9 9 10 10 11 11 11 11 11 12 14 20 26 30 30 27 19 14 11 11 12 12 10 8 6 5 4 4 5 5 5 5 6 5 5 5 5 6 6 7 7 7 8 8 8
7 6 6 6 6 6 6 6 6 6 6 7 7 8 8 9 10 10 11 10 11 11 11 10 9 9 9 10 11 11 12 12 11 11 13 16 22 27 29 27 20 14 10 10 11 11 10 8 6 5 4 4 4 4 4 4 4 4 4 4 5 5 6 6 7 8 8 8 9
7 6 6 6 6 6 6 6 6 6 6 7 7 8 8 9 10 10 10 11 11 11 10 10 10 9 9 10 10 11 12 12 11 11 12 14 19 24 28 28 21 15 9 7 7 8 8 7 6 6 5 5 4 4 3 3 3 3 3 3 3 4 4 5 6 6 7 7 8
7 6 6 6 6 6 6 6 6 6 6 7 7 8 8 9 9 10 10 11 11 11 10 10 10 10 9 9 10 11 12 12 12 11 11 13 16 21 26 28 24 17 11 6 4 3 4 4 5 5 6 5 4 4 3 3 3 3 3 2 2 2 2 3 4 4 5 5 6
7 6 6 6 6 6 6 6 6 6 7 7 7 8 8 9 9 10 10 11 11 10 10 10 10 10 10 9 10 11 12 12 12 11 11 12 14 19 23 27 26 21 14 7 3 0 -0 1 2 3 4 4 4 4 3 3 3 3 3 2 2 2 2 2 3 3 3 4 4
7 6 6 6 6 6 6 6 6 6 7 7 8 8 8 8 9 10 10 10 11 10 10 10 10 10 10 10 10 10 11 13 13 12 11 11 13 16 21 26 27 24 19 12 6 1 -1 -1 -0 0 0 1 2 2 3 3 3 3 3 3 3 3 3 3 3 3 3 3 3
7 6 6 6 6 6 6 6 6 7 7 7 8 8 8 8 9 9 10 10 10 11 11 10 10 10 10 10 10 10 11 12 13 13 12 11 12 14 18 23 26 26 24 19 12 6 2 -1 -1 -2 -2 -2 -0 1 1 2 2 3 3 3 3 3 4 4 4 4 4 4 3
6 6 6 6 6 6 6 6 6 7 7 7 8 8 8 8 9 9 10 10 10 10 11 11 10 10 10 10 10 10 11 12 13 13 13 12 11 12 15 20 24 27 26 24 19 13 8 4 1 -2 -3 -4 -3 -2 -0 1 2 3 3 3 3 3 4 5 5 6 6 5 4
6 6 6 6 6 6 6 6 7 7 7 7 8 8 8 8 9 9 10 10 10 10 10 11 11 10 10 10 10 10 11 11 13 14 14 13 12 12 13 16 21 25 27 27 24 20 16 12 7 2 -1 -4 -4 -3 -2 0 2 2 3 3 3 3 4 5 6 7 7 6 4
6 6 6 6 6 6 6 6 7 7 7 8 8 8 8 9 9 9 9 10 10 10 10 10 11 11 11 10 10 10 11 11 12 13 14 14 13 12 12 13 18 22 26 28 27 25 23 21 16 10 5 1 -1 -2 -2 -0 1 2 3 2 2 3 4 5 6 6 6 6 4
6 6 6 6 6 6 6 7 7 7 8 8 8 8 9 9 9 9 9 10 10 10 11 11 11 11 11 11 10 10 11 11 12 12 13 14 14 13 12 12 15 19 22 26 26 27 27 27 24 20 14 9 5 2 0 -0 1 2 2 2 2 3 3 4 5 5 5 5 4
6 6 6 6 6 6 7 7 7 8 8 8 8 9 9 9 9 9 10 10 10 11 11 11 11 11 11 10 10 10 10 11 12 12 13 14 14 13 12 11 13 16 18 21 22 24 27 30 28 24 20 14 9 5 2 0 1 2 2 3 3 3 3 4 4 4 4 5 7
6 6 6 6 6 6 7 7 7 8 8 8 9 9 9 9 9 9 10 10 10 11 11 12 12 12 11 11 10 10 10 10 12 12 13 14 15 14 13 11 12 13 16 18 19 21 24 28 27 23 18 13 9 5 2 1 2 2 3 3 3 4 3 3 3 4 6 8 12
6 6 6 6 6 6 7 7 8 8 8 8 9 9 9 10 10 9 9 10 10 11 12 12 12 12 12 12 10 10 9 10 11 12 13 14 15 15 14 13 12 13 15 16 17 19 21 25 23 19 14 10 7 4 3 3 3 3 3 4 4 3 3 2 4 7 10 15 19
6 6 6 6 6 6 7 7 8 8 8 8 9 9 9 10 9 9 10 10 10 11 12 12 13 13 13 12 11 10 10 10 11 12 13 14 15 16 15 14 13 13 14 16 17 18 20 24 21 17 13 10 7 4 4 4 6 6 6 4 3 2 3 4 9 14 19 22 24
6 6 6 6 6 6 7 7 8 8 8 9 9 9 9 10 10 10 10 10 10 11 12 12 13 13 13 12 12 11 11 11 11 11 11 13 15 16 16 16 14 13 14 16 17 18 20 23 22 19 16 12 8 5 5 8 11 10 8 5 4 4 8 13 20 24 25 24 23
6 6 6 6 6 7 7 8 8 8 8 8 9 9 9 10 10 10 10 10 10 11 12 12 13 13 13 13 12 12 12 12 12 11 11 11 13 16 17 17 15 14 14 15 16 18 20 22 24 23 20 15 12 8 8 14 16 13 9 6 8 13 20 27 30 28 25 21 21
6 6 6 6 6 7 7 8 8 8 8 8 9 9 9 10 10 10 10 10 10 10 11 12 13 14 14 14 13 13 12 12 12 12 11 11 12 14 16 17 16 15 14 15 16 17 18 21 25 25 21 13 13 10 10 16 17 12 8 10 19 28 34 37 32 25 19 16 18
6 6 6 6 6 7 7 7 8 8 8 8 9 9 9 9 10 10 10 10 10 10 11 12 13 14 14 15 14 13 12 12 12 12 12 11 12 13 15 17 17 17 16 16 16 17 18 21 24 21 16 11 10 10 10 11 9 6 8 17 31 39 40 35 25 18 14 13 17
6 6 6 6 6 7 7 7 8 8 8 8 8 9 9 10 10 10 10 10 10 10 10 11 12 13 14 16 15 14 13 12 12 12 12 12 12 13 14 16 17 18 17 16 16 17 19 21 22 17 9 -0 5 8 10 10 4 2 6 16 30 37 35 26 18 13 12 13 17
6 6 6 6 6 7 7 8 8 8 8 8 8 8 9 9 10 10 10 10 10 10 10 10 11 13 14 15 15 14 13 13 12 12 12 12 12 12 13 14 16 16 16 15 14 14 16 20 20 16 8 -2 4 8 10 7 2 -1 -2 2 18 28 28 18 15 13 13 13 18
6 6 6 6 6 7 7 7 7 8 8 8 8 8 9 9 10 10 10 10 10 9 9 10 10 12 13 15 15 15 14 13 12 12 12 12 12 11 12 12 13 13 13 10 9 9 11 16 19 16 9 1 7 11 10 -0 -2 -3 -4 -3 8 19 24 18 18 17 16 16 19
6 6 6 6 7 7 7 7 7 7 7 8 8 8 9 9 10 10 10 10 9 9 9 9 10 11 12 13 15 15 14 13 13 12 12 12 12 11 10 11 11 11 9 6 4 3 5 10 15 16 14 8 10 11 6 -4 -6 -4 0 6 2 6 13 20 22 22 19 18 19
6 6 6 6 6 6 7 7 7 7 7 7 7 8 8 9 10 10 10 10 9 9 9 9 9 9 10 12 13 14 14 14 13 13 12 12 12 11 10 11 11 10 8 5 2 2 2 6 12 16 17 15 17 13 4 -7 -8 -4 4 15 2 -3 2 20 24 24 20 18 18
6 6 6 7 6 6 6 7 7 7 7 7 7 8 8 8 9 10 10 10 10 9 9 8 8 9 9 10 11 13 13 14 14 13 12 12 12 12 11 11 11 11 10 9 6 5 4 6 11 15 18 20 22 18 9 -4 -6 -2 4 13 4 -2 1 19 24 23 20 17 17
6 6 6 6 6 6 6 6 7 7 7 7 7 7 8 8 9 10 10 10 10 9 9 9 8 8 9 9 10 11 12 13 14 13 12 11 12 12 12 12 13 14 15 15 13 11 9 8 12 15 18 21 22 20 14 2 -2 -1 2 6 2 1 7 21 24 22 18 16 16
6 6 6 6 6 6 6 6 6 7 7 7 6 7 7 8 9 9 10 10 10 10 9 9 8 8 8 9 9 10 11 13 13 13 12 11 11 12 12 13 14 15 17 18 18 16 14 11 12 14 16 19 20 21 17 7 0 -2 -1 1 1 5 13 23 24 22 19 16 16
6 6 6 6 6 6 6 6 6 6 7 6 6 6 7 8 8 9 9 10 10 10 9 9 8 9 9 9 9 10 10 12 13 13 12 11 11 11 12 13 13 14 16 18 19 18 16 13 12 12 13 14 19 22 20 10 1 -3 -3 -1 4 11 18 25 25 22 20 17 16
6 6 6 6 6 6 6 6 6 6 6 6 6 6 7 7 8 8 9 10 10 10 9 9 9 9 8 9 9 9 10 11 12 12 12 11 11 11 11 11 11 12 13 16 18 18 17 14 11 10 10 13 20 24 23 12 2 -3 -4 1 9 17 23 27 25 23 20 18 16
6 5 6 6 6 6 6 6 6 6 6 6 6 6 6 7 7 8 8 9 10 9 9 9 9 8 8 8 8 9 10 11 12 12 12 12 12 12 11 10 9 10 11 14 16 16 15 13 8 7 10 16 23 28 25 11 3 -2 -1 5 17 22 25 27 25 23 20 18 17
5 5 6 6 6 6 6 6 6 6 6 6 6 6 6 6 7 7 8 9 9 10 10 9 9 8 8 8 8 9 10 12 12 12 12 13 13 13 11 9 7 8 10 12 13 14 13 12 7 6 9 17 24 29 27 14 5 2 6 14 23 26 26 26 24 22 20 19 17
6 5 6 6 6 6 6 6 6 6 6 6 6 6 6 6 6 6 7 8 9 9 10 10 9 9 8 8 8 9 10 12 12 12 12 13 14 13 11 8 7 8 10 11 12 13 12 12 8 6 7 12 19 26 28 17 10 10 14 22 24 24 24 26 25 22 20 19 18
Height
3060 3058 3056 3054 3052 3049 3047 3044 3042 3038 3036 3033 3030 3027 3024 3021 3018 3015 3012 3008 3005 3002 2999 2997 2993 2990 2987 2984 2981 2978 2975 2972 2969 2966 2964 2962 2960 2958 2957 2956 2954 2952 2951 2950 2948 2946 2945 2943 2941 2938 2936 2934 2932 2930 2927 2926 2924 2922 2920 2919 2917 2916 2914 2912 2911 2909 2907 2906 2904
3059 3057 3055 3052 3050 3048 3045 3042 3040 3037 3034 3031 3028 3025 3022 3019 3017 3013 3010 3007 3004 3001 2998 2995 2992 2989 2986 2983 2980 2977 2974 2971 2968 2965 2963 2961 2959 2957 2956 2954 2953 2951 2950 2948 2947 2945 2944 2942 2940 2938 2936 2933 2932 2930 2927 2925 2923 2922 2920 2919 2917 2916 2914 2913 2911 2910 2908 2907 2905
3058 3056 3053 3051 3048 3046 3043 3041 3038 3035 3032 3030 3027 3024 3021 3018 3015 3012 3010 3007 3003 3000 2997 2994 2991 2988 2985 2982 2979 2976 2973 2970 2967 2964 2962 2959 2957 2956 2954 2953 2952 2950 2949 2947 2946 2944 2943 2941 2939 2937 2935 2933 2931 2929 2927 2925 2923 2922 2920 2919 2917 2916 2914 2913 2911 2910 2908 2907 2906
3057 3055 3052 3050 3047 3045 3042 3040 3037 3034 3031 3028 3026 3023 3020 3017 3014 3011 3008 3005 3002 2999 2996 2993 2990 2987 2984 2981 2978 2975 2972 2969 2966 2963 2960 2958 2956 2954 2953 2952 2950 2949 2947 2946 2945 2943 2942 2940 2938 2937 2935 2933 2931 2929 2927 2925 2923 2922 2920 2919 2917 2916 2914 2913 2911 2910 2909 2907 2906
3055 3053 3051 3049 3047 3044 3042 3039 3036 3033 3030 3027 3025 3022 3019 3016 3013 3010 3007 3003 3001 2998 2995 2992 2989 2986 2983 2980 2977 2974 2972 2968 2965 2962 2960 2957 2955 2953 2952 2950 2949 2947 2946 2945 2943 2942 2941 2939 2937 2936 2934 2932 2931 2929 2927 2925 2923 2922 2920 2918 2917 2916 2914 2913 2911 2910 2909 2907 2906
3054 3052 3050 3047 3045 3042 3040 3037 3035 3032 3030 3027 3023 3021 3017 3015 3012 3009 3006 3003 3000 2997 2994 2991 2988 2985 2982 2979 2976 2973 2971 2968 2965 2962 2959 2956 2954 2952 2950 2949 2947 2946 2945 2944 2942 2941 2939 2938 2937 2935 2933 2932 2930 2928 2926 2925 2923 2922 2920 2918 2917 2915 2914 2912 2911 2910 2908 2907 2906
3053 3051 3048 3046 3044 3041 3039 3036 3033 3031 3028 3025 3022 3019 3017 3013 3011 3008 3005 3002 2999 2996 2993 2990 2987 2984 2981 2978 2975 2972 2970 2967 2964 2961 2958 2956 2953 2951 2949 2947 2946 2945 2944 2942 2941 2940 2938 2937 2935 2934 2932 2931 2929 2927 2926 2924 2922 2921 2920 2918 2917 2915 2913 2912 2911 2909 2908 2907 2905
3052 3050 3047 3045 3043 3040 3038 3035 3032 3030 3027 3024 3021 3018 3016 3013 3010 3007 3004 3001 2998 2995 2992 2989 2987 2983 2980 2977 2975 2972 2969 2966 2963 2960 2957 2955 2952 2950 2948 2947 2945 2943 2942 2941 2940 2938 2937 2936 2934 2933 2931 2930 2928 2927 2925 2923 2922 2920 2919 2917 2916 2915 2913 2912 2910 2909 2907 2906 2905
3050 3048 3046 3044 3042 3039 3037 3034 3032 3029 3026 3023 3020 3017 3015 3012 3009 3006 3003 3000 2997 2994 2991 2988 2985 2982 2979 2977 2974 2971 2968 2965 2962 2960 2957 2954 2952 2949 2947 2945 2944 2942 2941 2940 2938 2937 2936 2935 2933 2932 2930 2929 2927 2926 2924 2922 2921 2920 2918 2917 2915 2914 2912 2911 2910 2908 2907 2906 2904
3049 3047 3045 3042 3040 3038 3035 3033 3030 3028 3025 3022 3019 3017 3014 3011 3008 3005 3002 3000 2997 2993 2990 2987 2984 2982 2978 2976 2973 2970 2967 2964 2962 2959 2956 2953 2951 2948 2946 2944 2942 2941 2940 2938 2937 2936 2935 2933 2932 2930 2929 2927 2926 2925 2923 2922 2920 2919 2917 2916 2914 2913 2912 2910 2909 2907 2906 2904 2903
3048 3046 3044 3042 3039 3037 3034 3032 3029 3027 3024 3021 3018 3016 3013 3010 3007 3004 3002 2998 2996 2993 2990 2987 2983 2981 2978 2975 2972 2969 2966 2963 2961 2958 2955 2952 2950 2947 2945 2943 2941 2940 2938 2937 2936 2934 2933 2932 2931 2929 2928 2926 2925 2924 2922 2921 2919 2918 2916 2915 2913 2912 2910 2909 2907 2906 2904 2903 2902
3047 3045 3042 3040 3038 3036 3033 3031 3028 3026 3023 3020 3017 3015 3012 3009 3007 3003 3001 2998 2995 2992 2989 2986 2983 2980 2977 2974 2971 2968 2966 2963 2960 2957 2954 2952 2949 2946 2944 2942 2940 2939 2937 2936 2934 2933 2932 2930 2929 2928 2927 2925 2924 2922 2921 2920 2918 2917 2915 2914 2912 2911 2909 2908 2906 2905 2903 2902 2900
3046 3044 3042 3039 3037 3035 3032 3030 3027 3025 3022 3019 3017 3014 3011 3008 3006 3003 3000 2997 2994 2991 2988 2985 2982 2979 2976 2973 2970 2967 2965 2962 2959 2956 2953 2951 2948 2945 2943 2941 2939 2937 2936 2934 2933 2932 2930 2929 2928 2926 2925 2924 2922 2921 2920 2919 2917 2916 2914 2912 2911 2910 2908 2907 2905 2903 2902 2900 2899
3044 3042 3040 3038 3036 3033 3031 3029 3026 3023 3021 3018 3016 3013 3010 3007 3005 3002 2999 2997 2994 2991 2987 2985 2982 2979 2976 2972 2969 2967 2964 2961 2958 2956 2953 2950 2947 2945 2942 2940 2938 2937 2935 2933 2932 2930 2929 2928 2926 2925 2924 2922 2921 2920 2919 2917 2916 2914 2913 2911 2910 2908 2907 2905 2904 2902 2901 2899 2897
3043 3041 3039 3037 3035 3032 3030 3028 3025 3022 3020 3017 3014 3012 3009 3007 3004 3001 2998 2995 2993 2990 2987 2984 2981 2978 2975 2972 2969 2966 2963 2961 2958 2955 2952 2950 2947 2944 2942 2939 2937 2935 2934 2932 2931 2929 2928 2926 2925 2924 2922 2921 2920 2919 2917 2916 2915 2913 2912 2910 2909 2907 2905 2904 2902 2901 2899 2897 2896
3042 3040 3038 3036 3034 3032 3029 3027 3024 3022 3019 3016 3013 3011 3008 3006 3003 3000 2997 2994 2992 2989 2986 2983 2980 2977 2974 2971 2968 2965 2962 2960 2957 2954 2952 2949 2947 2944 2941 2939 2937 2934 2933 2931 2930 2928 2927 2925 2924 2922 2921 2920 2919 2917 2916 2915 2914 2912 2911 2909 2907 2906 2904 2902 2901 2899 2897 2896 2894
3041 3039 3037 3035 3033 3031 3028 3026 3023 3021 3018 3015 3012 3010 3007 3005 3002 2999 2997 2994 2991 2988 2985 2982 2979 2977 2973 2971 2967 2965 2962 2959 2956 2954 2951 2948 2946 2943 2941 2938 2936 2934 2932 2930 2928 2927 2926 2924 2923 2921 2920 2919 2917 2917 2915 2914 2913 2911 2909 2908 2906 2904 2902 2901 2899 2897 2895 2894 2892
3040 3038 3036 3034 3032 3030 3027 3025 3022 3020 3017 3014 3012 3009 3007 3004 3001 2999 2996 2993 2990 2987 2985 2982 2979 2976 2973 2970 2967 2964 2961 2958 2956 2953 2950 2948 2945 2943 2940 2938 2935 2933 2931 2929 2927 2926 2924 2923 2922 2920 2919 2918 2917 2915 2914 2913 2912 2910 2908 2906 2904 2903 2901 2899 2897 2895 2893 2892 2890
3039 3037 3035 3033 3031 3029 3026 3024 3022 3019 3016 3013 3011 3008 3006 3003 3000 2998 2995 2992 2989 2987 2984 2981 2978 2975 2972 2970 2967 2964 2961 2958 2955 2952 2950 2947 2945 2942 2940 2937 2935 2932 2930 2928 2926 2925 2923 2922 2920 2919 2918 2917 2915 2914 2913 2912 2910 2908 2907 2905 2903 2901 2899 2897 2895 2893 2891 2889 2887
3038 3036 3034 3032 3030 3028 3025 3023 3021 3018 3015 3012 3010 3007 3005 3002 3000 2997 2994 2992 2989 2986 2983 2980 2977 2975 2972 2969 2966 2963 2960 2957 2954 2952 2949 2946 2944 2942 2939 2937 2934 2932 2930 2927 2925 2924 2922 2921 2919 2918 2916 2915 2914 2913 2911 2910 2908 2907 2905 2903 2901 2899 2897 2895 2893 2891 2889 2887 2885
3037 3035 3033 3031 3029 3027 3024 3022 3020 3017 3014 3012 3009 3007 3004 3002 2999 2996 2994 2991 2988 2985 2982 2980 2977 2974 2971 2968 2965 2962 2960 2957 2954 2951 2948 2946 2943 2941 2939 2936 2934 2931 2929 2927 2925 2923 2921 2919 2918 2917 2915 2914 2913 2911 2910 2908 2907 2905 2903 2902 2900 2897 2895 2893 2891 2889 2886 2884 2882
3036 3034 3032 3030 3028 3026 3023 3021 3019 3016 3014 3011 3008 3006 3003 3001 2998 2996 2993 2990 2987 2985 2982 2979 2976 2973 2971 2967 2965 2962 2959 2956 2953 2951 2948 2945 2942 2940 2938 2936 2933 2931 2928 2926 2924 2922 2920 2918 2917 2915 2914 2913 2912 2910 2909 2907 2906 2904 2902 2900 2898 2896 2894 2891 2889 2886 2884 2881 2879
3035 3033 3031 3029 3027 3025 3022 3020 3018 3015 3013 3010 3007 3005 3002 3000 2997 2995 2992 2990 2987 2984 2982 2979 2976 2973 2970 2967 2964 2961 2958 2956 2953 2950 2947 2945 2942 2940 2937 2935 2933 2930 2928 2926 2923 2921 2919 2917 2916 2914 2913 2912 2911 2909 2908 2906 2904 2902 2900 2898 2896 2894 2892 2889 2887 2884 2881 2878 2876
3034 3032 3030 3028 3026 3024 3022 3019 3017 3014 3012 3009 3007 3004 3002 2999 2997 2994 2992 2989 2987 2984 2981 2978 2976 2973 2970 2967 2964 2961 2958 2955 2953 2950 2947 2945 2942 2939 2937 2935 2932 2930 2928 2926 2923 2921 2919 2917 2915 2914 2912 2911 2910 2908 2907 2905 2903 2901 2899 2897 2894 2892 2889 2887 2884 2881 2878 2876 2873
3033 3031 3029 3027 3025 3023 3021 3018 3016 3014 3011 3009 3006 3004 3001 2999 2996 2994 2991 2989 2986 2983 2981 2978 2975 2972 2970 2967 2964 2961 2958 2955 2952 2950 2947 2945 2942 2939 2937 2935 2932 2930 2928 2925 2923 2921 2919 2917 2916 2914 2913 2911 2909 2907 2906 2904 2902 2900 2898 2895 2893 2890 2887 2884 2881 2878 2876 2873 2871
3032 3030 3028 3026 3024 3022 3020 3018 3015 3013 3011 3008 3005 3003 3000 2998 2996 2993 2991 2988 2986 2983 2981 2978 2975 2972 2969 2967 2964 2961 2957 2955 2952 2949 2947 2944 2942 2939 2937 2934 2932 2930 2927 2926 2923 2922 2920 2918 2916 2914 2913 2912 2910 2908 2905 2903 2901 2899 2897 2895 2892 2888 2885 2882 2879 2876 2874 2872 2870
3031 3029 3027 3025 3023 3021 3019 3017 3015 3012 3010 3007 3005 3002 3000 2997 2995 2992 2990 2988 2986 2983 2980 2977 2975 2972 2969 2966 2963 2960 2957 2955 2952 2949 2947 2944 2942 2939 2937 2934 2932 2930 2927 2926 2923 2922 2920 2918 2916 2914 2913 2912 2910 2908 2906 2903 2901 2899 2897 2894 2891 2887 2883 2880 2877 2875 2873 2871 2868
3030 3028 3027 3024 3022 3020 3018 3016 3014 3011 3009 3007 3004 3002 2999 2997 2994 2992 2990 2987 2985 2982 2979 2977 2974 2971 2969 2966 2963 2960 2957 2955 2952 2949 2947 2944 2942 2939 2937 2934 2932 2930 2927 2925 2923 2921 2919 2917 2916 2914 2912 2911 2909 2907 2905 2903 2901 2899 2897 2894 2890 2886 2882 2880 2877 2875 2872 2870 2867
3029 3027 3026 3024 3022 3020 3017 3015 3013 3011 3008 3006 3003 3001 2998 2996 2994 2992 2989 2987 2984 2982 2979 2976 2974 2971 2968 2966 2963 2960 2957 2955 2952 2949 2947 2944 2942 2939 2937 2934 2932 2930 2927 2926 2923 2921 2919 2917 2916 2914 2912 2910 2909 2907 2904 2902 2901 2899 2896 2893 2889 2885 2882 2879 2877 2874 2872 2869 2867
3028 3027 3025 3023 3021 3019 3017 3015 3012 3010 3008 3005 3003 3001 2998 2996 2993 2991 2988 2986 2983 2981 2979 2976 2974 2971 2969 2966 2963 2960 2957 2955 2952 2949 2947 2944 2942 2939 2937 2934 2932 2930 2928 2926 2923 2921 2919 2917 2915 2913 2912 2910 2908 2907 2905 2903 2901 2899 2896 2892 2888 2884 2881 2878 2877 2874 2872 2869 2867
3027 3026 3024 3022 3020 3018 3016 3014 3012 3009 3007 3005 3002 3000 2997 2995 2993 2990 2988 2986 2983 2981 2978 2976 2973 2971 2968 2966 2963 2960 2957 2954 2952 2949 2947 2944 2942 2939 2937 2934 2932 2930 2928 2926 2924 2922 2919 2917 2915 2913 2911 2910 2908 2907 2905 2903 2901 2898 2895 2891 2887 2883 2881 2879 2877 2874 2872 2869 2867
3027 3025 3023 3021 3019 3017 3015 3013 3011 3009 3007 3004 3002 2999 2997 2995 2992 2990 2988 2985 2983 2980 2977 2975 2972 2970 2967 2965 2962 2960 2957 2954 2952 2949 2947 2944 2942 2939 2937 2935 2932 2930 2928 2926 2923 2921 2919 2917 2915 2913 2911 2909 2908 2907 2904 2902 2900 2897 2894 2890 2886 2883 2881 2879 2877 2874 2872 2869 2867
3026 3024 3022 3021 3019 3017 3015 3012 3011 3008 3006 3004 3002 2999 2997 2994 2992 2990 2987 2985 2982 2980 2977 2975 2972 2969 2967 2964 2962 2960 2957 2954 2952 2949 2947 2944 2942 2939 2937 2935 2932 2930 2928 2926 2923 2921 2919 2917 2914 2912 2911 2909 2907 2905 2903 2901 2899 2896 2893 2889 2886 2884 2882 2880 2877 2874 2872 2869 2867
3025 3023 3022 3020 3018 3016 3014 3012 3010 3008 3006 3003 3001 2999 2997 2994 2992 2989 2987 2984 2982 2980 2977 2975 2972 2969 2967 2964 2962 2959 2957 2954 2952 2949 2947 2944 2942 2940 2937 2935 2932 2930 2928 2926 2923 2921 2919 2917 2914 2912 2910 2908 2906 2904 2902 2901 2898 2895 2892 2889 2887 2885 2882 2880 2877 2874 2871 2869 2867
3024 3022 3021 3019 3017 3015 3013 3011 3009 3007 3005 3003 3001 2998 2996 2994 2991 2989 2987 2984 2982 2980 2977 2974 2972 2969 2966 2963 2961 2958 2956 2953 2951 2948 2946 2944 2942 2940 2937 2935 2933 2930 2928 2926 2923 2921 2919 2917 2914 2912 2909 2907 2905 2903 2902 2900 2897 2894 2892 2889 2887 2885 2883 2880 2877 2874 2872 2869 2867
3023 3022 3020 3018 3016 3015 3012 3011 3009 3007 3005 3002 3000 2998 2996 2993 2991 2989 2987 2984 2982 2979 2977 2974 2971 2969 2966 2963 2961 2958 2956 2953 2950 2948 2946 2944 2942 2940 2938 2936 2933 2931 2928 2926 2923 2921 2919 2917 2914 2912 2909 2907 2904 2902 2900 2898 2896 2894 2892 2889 2887 2885 2883 2880 2877 2875 2872 2869 2867
3022 3021 3019 3017 3016 3014 3012 3010 3008 3006 3004 3002 3000 2998 2996 2993 2991 2989 2986 2984 2981 2979 2976 2974 2971 2968 2966 2963 2961 2958 2955 2952 2950 2947 2946 2944 2942 2940 2938 2935 2933 2931 2928 2926 2924 2921 2919 2916 2914 2911 2909 2906 2904 2901 2899 2897 2896 2894 2892 2890 2888 2886 2883 2881 2878 2875 2872 2870 2868
3022 3020 3018 3017 3015 3013 3011 3009 3007 3006 3004 3002 3000 2998 2996 2993 2991 2988 2986 2984 2981 2979 2976 2974 2971 2968 2966 2963 2961 2958 2955 2952 2950 2947 2946 2944 2942 2940 2937 2935 2933 2931 2928 2926 2923 2921 2918 2916 2913 2911 2910 2907 2904 2901 2899 2897 2896 2895 2893 2891 2888 2886 2883 2881 2878 2876 2873 2871 2869
3021 3019 3017 3016 3014 3012 3011 3009 3007 3005 3003 3002 2999 2997 2995 2993 2990 2988 2986 2984 2981 2979 2976 2974 2971 2968 2966 2963 2961 2958 2955 2952 2950 2948 2946 2944 2942 2940 2938 2936 2933 2931 2928 2925 2923 2920 2918 2915 2913 2912 2911 2909 2905 2902 2899 2898 2898 2897 2894 2892 2888 2886 2883 2881 2878 2876 2874 2872 2870
3020 3018 3017 3015 3014 3012 3010 3008 3007 3005 3003 3001 2999 2997 2995 2993 2991 2988 2986 2984 2981 2979 2976 2974 2971 2968 2966 2963 2961 2958 2955 2952 2950 2948 2946 2944 2942 2940 2938 2936 2934 2931 2928 2925 2922 2920 2918 2916 2913 2912 2912 2909 2906 2902 2901 2901 2900 2898 2895 2892 2888 2886 2883 2881 2878 2876 2874 2872 2870
3019 3017 3016 3015 3013 3011 3010 3008 3006 3004 3003 3001 2999 2997 2995 2993 2991 2988 2986 2984 2981 2979 2976 2974 2971 2969 2966 2964 2961 2958 2955 2953 2951 2949 2947 2945 2942 2941 2938 2936 2934 2931 2927 2924 2922 2920 2918 2916 2914 2912 2911 2909 2906 2903 2902 2902 2901 2898 2894 2891 2888 2885 2882 2880 2878 2876 2874 2872 2871